Location: Unspecified
(0.0000°N, 0.0000°E)
Time: 12:00:07
(UTC+00:00)

Envisat - Pass Details

Date: 13 August 2017
Orbit: 764 x 766 km, 98.2° (Epoch: 23 August)

Event Time Altitude Azimuth Distance (km) Brightness Sun altitude
Exits shadow 20:49:00 14° 331° (NNW) 2,052 5.6 -39.5°
Drops below altitude 10° 20:49:38 10° 333° (NNW) 2,293 5.9 -39.7°
Sets 20:51:59 0° 338° (NNW) 3,215 6.7 -40.2°
